Location: Fort Wayne
(41.1310°N, 85.1290°W)
Time: 01:29:12
(UTC-04:00)

Cosmos 2056 Rocket - Visible Passes

Search period start: 06 May 2016 00:00
Search period end: 16 May 2016 00:00
Orbit: 742 x 802 km, 74.0° (Epoch: 05 May)

Date Brightness Start Highest point End Pass type
(mag) Time Alt. Az. Time Alt. Az. Time Alt. Az.
06 May 6.1 00:59:37 10° W 01:00:04 10° W 01:00:04 10° W visible
06 May 3.8 22:37:38 10° N 22:42:56 55° ENE 22:44:41 38° ESE visible
07 May 5.5 00:21:01 10° NW 00:24:32 18° W 00:25:03 18° WSW visible
07 May 4.4 22:02:00 10° N 22:06:53 34° ENE 22:09:42 21° ESE visible
07 May 4.8 23:44:18 10° NW 23:48:55 30° W 23:50:03 27° WSW visible
08 May 5.0 21:26:37 10° N 21:30:44 22° ENE 21:34:44 10° ESE visible
08 May 4.1 23:08:01 10° NNW 23:13:11 50° WSW 23:15:05 34° SSW visible
09 May 3.5 22:31:59 10° NNW 22:37:23 85° WSW 22:40:11 29° SSE visible
10 May 3.7 21:56:09 10° NNW 22:01:28 59° ENE 22:05:18 18° SE visible
10 May 5.8 23:39:44 10° WNW 23:43:01 17° W 23:45:40 12° SW visible
11 May 4.3 21:20:30 10° N 21:25:26 36° ENE 21:30:16 10° SE visible
11 May 5.2 23:02:55 10° NW 23:07:24 28° W 23:10:49 15° SSW visible
12 May 4.4 22:26:35 10° NNW 22:31:42 47° WSW 22:36:02 14° S visible
13 May 3.6 21:50:32 10° NNW 21:55:53 79° WSW 22:01:07 10° SSE visible
14 May 3.7 21:14:40 10° NNW 21:19:59 63° ENE 21:25:10 10° SSE visible
14 May 6.0 22:58:28 10° WNW 23:01:29 15° W 23:04:29 10° SW visible
15 May 5.4 22:21:33 10° NW 22:25:53 26° W 22:30:09 10° SSW visible
